Location: Izdebno
(52.6670°N, 16.2170°E)
Time: 17:38:31
(UTC+02:00)

Transit 2A - Visible Passes

Search period start: 21 September 2023 00:00
Search period end: 01 October 2023 00:00
Orbit: 596 x 958 km, 66.7° (Epoch: 20 September)

Date Brightness Start Highest point End Pass type
(mag) Time Alt. Az. Time Alt. Az. Time Alt. Az.
21 Sep 8.3 20:06:41 10° WNW 20:10:03 19° WSW 20:13:14 10° SSW visible
22 Sep 7.8 19:31:28 10° NW 19:35:30 28° WSW 19:39:16 10° S visible
25 Sep 8.7 19:31:33 10° WNW 19:33:39 13° WSW 19:35:42 10° SW visible
